Location: *
(43.7000°S, 168.7000°W)
Time: 14:45:30
(UTC+00:00)

USA 229 DEB - Pass Details

Date: 07 July 2020
Orbit: 983 x 1229 km, 63.4° (Epoch: 24 June)

Event Time Altitude Azimuth Distance (km) Brightness Sun altitude
Exits shadow 17:45:06 - 217° (SW) 3,139 5.6 -11.0°
Reaches altitude 10° 17:45:41 10° 217° (SW) 2,928 5.5 -10.9°
Maximum altitude 17:52:35 88° 129° (SE) 1,041 3.7 -9.7°
Drops below altitude 10° 17:59:07 10° 36° (NE) 2,766 6.9 -8.6°
Sets 18:01:38 0° 35° (NE) 3,695 7.6 -8.2°
